TimeCST,TemperatureF,Dew PointF,Humidity,Sea Level PressureIn,VisibilityMPH,Wind Direction,Wind SpeedMPH,Gust SpeedMPH,PrecipitationIn,Events,Conditions,WindDirDegrees,DateUTC
12:15 AM,50.0,47.3,90,29.86,0.2,SE,10.4,-,N/A,Fog,Fog,140,2012-12-03 06:15:00
12:35 AM,50.0,47.5,91,29.86,0.2,SE,12.7,-,N/A,Fog,Fog,130,2012-12-03 06:35:00
12:55 AM,50.2,47.7,91,29.84,0.2,SE,12.7,-,N/A,Fog,Fog,130,2012-12-03 06:55:00
1:15 AM,50.2,47.7,91,29.83,0.2,SE,16.1,-,N/A,Fog,Fog,140,2012-12-03 07:15:00
1:35 AM,50.4,47.8,91,29.82,0.2,SSE,15.0,-,N/A,Fog,Fog,150,2012-12-03 07:35:00
1:55 AM,50.7,48.2,91,29.81,0.2,SE,16.1,-,N/A,Fog,Fog,140,2012-12-03 07:55:00
2:15 AM,50.9,48.4,91,29.81,0.2,SE,12.7,-,N/A,Fog,Fog,140,2012-12-03 08:15:00
2:35 AM,51.6,49.1,91,29.79,0.2,SE,16.1,-,N/A,Fog,Fog,140,2012-12-03 08:35:00
2:55 AM,52.2,49.6,91,29.78,0.2,SE,15.0,-,N/A,Fog,Fog,140,2012-12-03 08:55:00
3:15 AM,52.7,50.0,91,29.77,0.2,SE,13.8,-,N/A,Fog,Fog,140,2012-12-03 09:15:00
3:35 AM,53.1,50.5,91,29.76,0.2,SSE,15.0,19.6,N/A,Fog,Fog,150,2012-12-03 09:35:00
3:55 AM,53.6,50.9,91,29.74,0.2,SSE,13.8,-,N/A,Fog,Fog,150,2012-12-03 09:55:00
4:15 AM,54.1,51.8,92,29.73,0.5,SSE,16.1,19.6,N/A,Fog,Fog,150,2012-12-03 10:15:00
4:35 AM,54.7,52.2,91,29.72,0.8,SE,13.8,18.4,N/A,,Overcast,140,2012-12-03 10:35:00
4:55 AM,54.7,52.2,91,29.70,2.0,SE,15.0,-,N/A,,Overcast,140,2012-12-03 10:55:00
5:15 AM,54.5,52.0,91,29.70,2.5,SSE,10.4,-,N/A,,Overcast,150,2012-12-03 11:15:00
5:35 AM,54.9,52.3,91,29.69,3.0,SE,13.8,-,N/A,,Overcast,140,2012-12-03 11:35:00
5:55 AM,54.9,52.2,91,29.69,3.0,SSE,10.4,-,N/A,,Overcast,150,2012-12-03 11:55:00
6:15 AM,55.4,52.7,91,29.70,3.0,SSE,8.1,-,N/A,,Overcast,150,2012-12-03 12:15:00
6:35 AM,56.1,53.4,91,29.70,3.0,SE,9.2,-,N/A,,Overcast,140,2012-12-03 12:35:00
6:55 AM,55.9,53.2,91,29.69,3.0,SSE,11.5,-,N/A,,Overcast,150,2012-12-03 12:55:00
7:15 AM,56.7,54.0,91,29.68,3.0,SSE,11.5,-,N/A,,Overcast,160,2012-12-03 13:15:00
7:55 AM,60.1,56.8,89,29.67,4.0,South,12.7,-,N/A,,Overcast,170,2012-12-03 13:55:00
8:15 AM,60.4,56.8,88,29.67,5.0,South,13.8,-,N/A,,Overcast,170,2012-12-03 14:15:00
8:35 AM,61.7,57.7,87,29.67,5.0,South,12.7,18.4,N/A,,Overcast,180,2012-12-03 14:35:00
8:55 AM,62.6,58.1,85,29.67,7.0,South,15.0,21.9,N/A,,Overcast,190,2012-12-03 14:55:00
9:15 AM,63.5,58.5,84,29.67,7.0,South,17.3,21.9,N/A,,Overcast,190,2012-12-03 15:15:00
9:35 AM,63.9,58.5,83,29.66,10.0,South,16.1,-,N/A,,Overcast,190,2012-12-03 15:35:00
9:55 AM,64.4,58.6,82,29.66,10.0,SSW,16.1,23.0,N/A,,Overcast,200,2012-12-03 15:55:00
10:15 AM,65.3,58.8,80,29.66,10.0,SSW,11.5,23.0,N/A,,Overcast,200,2012-12-03 16:15:00
10:55 AM,66.6,58.1,74,29.66,10.0,SSW,15.0,25.3,N/A,,Overcast,210,2012-12-03 16:55:00
11:15 AM,67.1,57.4,71,29.67,10.0,SW,17.3,28.8,N/A,,Mostly Cloudy,220,2012-12-03 17:15:00
11:55 AM,68.0,55.4,64,29.66,10.0,SW,18.4,25.3,N/A,,Mostly Cloudy,230,2012-12-03 17:55:00
12:15 PM,69.1,53.8,58,29.65,10.0,WSW,21.9,26.5,N/A,,Scattered Clouds,240,2012-12-03 18:15:00
12:35 PM,69.8,52.5,54,29.65,10.0,SW,18.4,27.6,N/A,,Scattered Clouds,230,2012-12-03 18:35:00
12:55 PM,67.8,53.2,60,29.67,10.0,West,19.6,27.6,N/A,,Scattered Clouds,270,2012-12-03 18:55:00
1:15 PM,65.8,52.9,63,29.68,10.0,West,16.1,25.3,N/A,,Clear,270,2012-12-03 19:15:00
1:35 PM,62.4,47.3,58,29.70,10.0,WNW,20.7,28.8,N/A,,Scattered Clouds,290,2012-12-03 19:35:00
1:55 PM,62.1,46.4,56,29.70,10.0,West,17.3,-,N/A,,Scattered Clouds,270,2012-12-03 19:55:00
2:15 PM,62.6,43.5,50,29.72,10.0,WNW,18.4,26.5,N/A,,Clear,290,2012-12-03 20:15:00
2:35 PM,61.3,42.8,51,29.73,10.0,WNW,20.7,28.8,N/A,,Clear,290,2012-12-03 20:35:00
2:55 PM,61.7,42.1,49,29.74,10.0,WNW,18.4,25.3,N/A,,Clear,300,2012-12-03 20:55:00
3:15 PM,61.0,41.2,48,29.76,10.0,WNW,17.3,26.5,N/A,,Clear,300,2012-12-03 21:15:00
3:35 PM,60.3,41.9,51,29.79,10.0,NW,15.0,21.9,N/A,,Clear,320,2012-12-03 21:35:00
3:55 PM,59.7,41.7,51,29.81,10.0,NW,16.1,27.6,N/A,,Clear,320,2012-12-03 21:55:00
4:15 PM,59.2,42.1,53,29.82,10.0,NW,13.8,20.7,N/A,,Clear,310,2012-12-03 22:15:00
4:35 PM,58.6,41.4,53,29.84,10.0,NW,12.7,18.4,N/A,,Clear,310,2012-12-03 22:35:00
4:55 PM,57.9,41.4,54,29.86,10.0,WNW,11.5,16.1,N/A,,Clear,300,2012-12-03 22:55:00
5:15 PM,57.4,41.0,54,29.87,10.0,NW,11.5,-,N/A,,Clear,310,2012-12-03 23:15:00
5:35 PM,56.3,40.3,55,29.88,10.0,NW,9.2,-,N/A,,Clear,310,2012-12-03 23:35:00
5:55 PM,56.3,39.0,52,29.90,10.0,NW,13.8,19.6,N/A,,Clear,310,2012-12-03 23:55:00
6:15 PM,55.4,38.1,52,29.91,10.0,WNW,11.5,18.4,N/A,,Clear,300,2012-12-04 00:15:00
6:55 PM,54.0,34.0,47,29.93,10.0,NW,10.4,16.1,N/A,,Clear,310,2012-12-04 00:55:00
7:15 PM,52.7,32.9,47,29.94,10.0,WNW,9.2,-,N/A,,Clear,300,2012-12-04 01:15:00
7:35 PM,51.8,32.2,47,29.95,10.0,WNW,6.9,-,N/A,,Clear,300,2012-12-04 01:35:00
7:55 PM,51.1,32.0,48,29.96,10.0,West,5.8,-,N/A,,Clear,280,2012-12-04 01:55:00
8:15 PM,49.8,32.0,50,29.97,10.0,West,6.9,-,N/A,,Clear,270,2012-12-04 02:15:00
8:35 PM,48.4,32.0,53,29.98,10.0,West,4.6,-,N/A,,Clear,260,2012-12-04 02:35:00
8:55 PM,47.3,32.0,55,30.00,10.0,West,6.9,-,N/A,,Clear,270,2012-12-04 02:55:00
9:15 PM,47.7,31.8,54,30.00,10.0,West,8.1,-,N/A,,Clear,270,2012-12-04 03:15:00
9:35 PM,47.3,32.0,55,30.01,10.0,West,8.1,-,N/A,,Clear,270,2012-12-04 03:35:00
9:55 PM,46.0,31.5,57,30.02,10.0,West,5.8,-,N/A,,Clear,270,2012-12-04 03:55:00
10:15 PM,44.4,31.1,60,30.03,10.0,WSW,5.8,-,N/A,,Clear,250,2012-12-04 04:15:00
10:35 PM,43.0,30.9,62,30.03,10.0,WSW,5.8,-,N/A,,Clear,250,2012-12-04 04:35:00
10:55 PM,42.8,30.2,61,30.03,10.0,WNW,6.9,-,N/A,,Clear,300,2012-12-04 04:55:00
11:15 PM,43.5,29.8,59,30.04,10.0,WNW,5.8,-,N/A,,Clear,300,2012-12-04 05:15:00
11:35 PM,42.6,29.3,59,30.04,10.0,WNW,8.1,-,N/A,,Clear,300,2012-12-04 05:35:00
11:55 PM,43.7,28.4,55,30.05,10.0,WNW,6.9,-,N/A,,Clear,290,2012-12-04 05:55:00